Cut Bank, MT

2:32 PM MDT on April 28, 2017 (GMT -0600)
Cut Bank Municipal

Weather History for KCTB - September, 2014

Change the Weather History Date:

Thursday, September 11, 2014

  Actual Average Record
Temperature  
Mean Temperature 39 °F 55 °F  
Max Temperature 46 °F 70 °F 90 °F (1981)
Min Temperature 31 °F 41 °F 24 °F (1949)
Degree Days  
Heating Degree Days 26 10  
Month to date heating degree days 165 92  
Since 1 July heating degree days 262 286  
Cooling Degree Days 0 0  
Month to date cooling degree days 0 6  
Year to date cooling degree days 197 159  
Moisture  
Dew Point 29 °F    
Average Humidity 77    
Maximum Humidity 100    
Minimum Humidity 53    
Precipitation  
Precipitation T in 0.04 in 1.34 in (1978)
Month to date precipitation 0.61 0.49  
Year to date precipitation 14.45 9.15  
Snow  
Snow 0.00 in - - ()
Snow Depth 1.00 in    
Sea Level Pressure  
Sea Level Pressure 30.54 in    
Wind  
Wind Speed 9 mph (East)    
Max Wind Speed 18 mph    
Max Gust Speed 22 mph    
Visibility 10 miles    
Events Snow    
T = Trace of Precipitation, MM = Missing Value Source: NWS Daily Summary

Daily Weather History Graph

Daily Weather History Graph

Search for Another Location

Airport or City:

Trip Planner

Search our weather history database for the weather conditions in past years. The results will help you decide how hot, cold, wet, or windy it might be!

Date:

Astronomy

Sep. 11, 2014 Rise Set
Actual Time 7:00 AM MDT 7:50 PM MDT
Civil Twilight 6:28 AM MDT 8:22 PM MDT
Nautical Twilight 5:50 AM MDT 9:00 PM MDT
Astronomical Twilight 5:10 AM MDT 9:40 PM MDT
Moon 9:12 PM MDT (9/11) 10:19 AM MDT (9/11)
Length of Visible Light 13h 53m
Length of Day
12h 49m
Waning Gibbous, 90% of the Moon is Illuminated
Sep 11
Waning Gibbous
Sep 15
Last Quarter
Sep 24
New
Oct 1
First Quarter
Oct 8
Full

Hourly Weather History & Observations

Time (MDT) Temp. Windchill Dew Point Humidity Pressure Visibility Wind Dir Wind Speed Gust Speed Precip Events Conditions
12:56 AM 32.0 °F 23.6 °F 30.9 °F 96% 30.60 in 10.0 mi NNE 10.4 mph - 0.00 in   Overcast
1:56 AM 32.0 °F 20.8 °F 30.0 °F 92% 30.60 in 5.0 mi NE 17.3 mph - 0.00 in Snow Light Snow
2:27 AM 32.0 °F 21.6 °F 28.9 °F 88% 30.51 in 4.0 mi NNE 15.0 mph - 0.00 in Snow Light Snow
2:40 AM 32.0 °F 22.5 °F 28.9 °F 88% 30.51 in 9.0 mi NNE 12.7 mph - 0.00 in   Overcast
2:56 AM 32.0 °F 22.1 °F 30.0 °F 92% 30.61 in 10.0 mi NNE 13.8 mph - 0.00 in   Overcast
3:12 AM 30.9 °F 20.7 °F 28.9 °F 92% 30.51 in 5.0 mi NE 13.8 mph - 0.00 in Snow Light Snow
3:56 AM 32.0 °F 22.5 °F 28.9 °F 88% 30.61 in 9.0 mi NNE 12.7 mph - 0.00 in   Overcast
4:03 AM 32.0 °F 23.0 °F 30.0 °F 92% 30.51 in 9.0 mi NNE 11.5 mph - 0.00 in Snow Light Snow
4:11 AM 32.0 °F 23.0 °F 30.0 °F 92% 30.51 in 9.0 mi NNE 11.5 mph - 0.00 in Snow Light Snow
4:56 AM 30.9 °F 22.8 °F 28.9 °F 92% 30.62 in 9.0 mi NNE 9.2 mph - 0.00 in Snow Light Snow
5:39 AM 32.0 °F 23.0 °F 30.0 °F 92% 30.52 in 10.0 mi North 11.5 mph - 0.00 in   Overcast
5:56 AM 30.2 °F 21.3 °F 28.4 °F 93% 30.52 in 10.0 mi NNE 10.4 mph - N/A   Overcast
6:25 AM 30.9 °F 23.5 °F 30.0 °F 96% 30.52 in 10.0 mi NNE 8.1 mph - N/A   Overcast
6:52 AM 30.2 °F 24.3 °F 28.4 °F 93% 30.52 in 10.0 mi NNE 5.8 mph - N/A   Overcast
6:56 AM 30.9 °F 26.2 °F 30.0 °F 96% 30.62 in 10.0 mi NNE 4.6 mph - N/A   Overcast
7:45 AM 32.0 °F 28.7 °F 28.9 °F 88% 30.52 in 10.0 mi East 3.5 mph - N/A   Overcast
7:56 AM 32.0 °F 26.4 °F 28.0 °F 85% 30.62 in 10.0 mi ENE 5.8 mph - N/A   Overcast
8:03 AM 32.0 °F 27.5 °F 28.9 °F 88% 30.53 in 10.0 mi ENE 4.6 mph - N/A   Overcast
8:16 AM 32.0 °F 27.5 °F 28.9 °F 88% 30.53 in 10.0 mi NE 4.6 mph - N/A   Overcast
8:28 AM 32.0 °F 28.7 °F 28.9 °F 88% 30.53 in 10.0 mi NE 3.5 mph - N/A   Overcast
8:56 AM 33.1 °F 30.0 °F 28.9 °F 85% 30.63 in 10.0 mi ENE 3.5 mph - N/A   Overcast
9:26 AM 33.1 °F 30.0 °F 28.9 °F 85% 30.53 in 10.0 mi East 3.5 mph - N/A   Overcast
9:56 AM 33.1 °F 28.7 °F 28.9 °F 85% 30.63 in 10.0 mi East 4.6 mph - N/A   Overcast
10:32 AM 34.0 °F 31.0 °F 30.0 °F 85% 30.54 in 10.0 mi SE 3.5 mph - N/A   Overcast
10:56 AM 35.1 °F 29.3 °F 28.9 °F 78% 30.63 in 10.0 mi ESE 6.9 mph - N/A   Overcast
11:19 AM 35.1 °F 28.6 °F 28.9 °F 78% 30.53 in 10.0 mi SE 8.1 mph - N/A   Overcast
11:56 AM 35.1 °F 29.3 °F 30.0 °F 82% 30.62 in 10.0 mi South 6.9 mph - N/A   Overcast
12:39 PM 37.0 °F 31.0 °F 30.9 °F 79% 30.51 in 10.0 mi SSE 8.1 mph - N/A   Overcast
12:56 PM 37.9 °F 31.5 °F 30.0 °F 73% 30.60 in 10.0 mi SSE 9.2 mph - N/A   Overcast
1:51 PM 42.8 °F 36.6 °F 30.2 °F 61% 30.49 in 10.0 mi South 11.5 mph - N/A   Partly Cloudy
1:56 PM 43.0 °F 37.7 °F 32.0 °F 65% 30.56 in 10.0 mi South 9.2 mph - N/A   Partly Cloudy
2:56 PM 42.1 °F 36.6 °F 28.0 °F 58% 30.55 in 10.0 mi South 9.2 mph - N/A   Scattered Clouds
3:56 PM 45.0 °F 38.2 °F 28.0 °F 52% 30.51 in 10.0 mi South 15.0 mph - N/A   Partly Cloudy
4:56 PM 45.0 °F 39.3 °F 28.9 °F 53% 30.50 in 10.0 mi South 11.5 mph - N/A   Partly Cloudy
5:56 PM 45.0 °F 38.9 °F 28.9 °F 53% 30.48 in 10.0 mi South 12.7 mph - N/A   Clear
6:56 PM 44.1 °F 37.7 °F 30.0 °F 58% 30.47 in 10.0 mi SSE 12.7 mph - N/A   Clear
7:56 PM 39.0 °F 32.8 °F 30.0 °F 70% 30.46 in 10.0 mi South 9.2 mph - N/A   Clear
9:56 PM 33.1 °F 26.9 °F 28.9 °F 85% 30.46 in 10.0 mi SSE 6.9 mph - N/A   Clear
10:56 PM 34.0 °F 26.0 °F 28.0 °F 79% 30.42 in 10.0 mi South 10.4 mph - N/A   Clear
11:56 PM 33.1 °F 27.7 °F 28.0 °F 82% 30.41 in 10.0 mi SSE 5.8 mph - N/A   Clear